Flag for Puerto Rico Weather past 2 weeks in Ponce, Puerto Rico

Now
88 °F

Passing clouds.


Feels Like: 93 °F
Forecast: 72 / 88 °F
Wind: 12 mph from Southeast

Location: Ponce / Mercedita

Current Time: Apr 21, 2015 at 3:13:51 PM

Latest Report: Apr 21, 2015 at 2:50 PM


Visibility: 10 mi

Pressure: 29.96 "Hg

Humidity: 55%

Dew point: 70 °F

Location of PonceLocation

Historic Weather in Ponce — Graph

°F

Ponce temperature yesterday

Maximum temperature yesterday: 88 °F (at 10:50 AM)
Minimum temperature yesterday: 73 °F (at 5:50 AM)
Average temperature yesterday: 80 °F

Past Weeks' High & Low Weather Summary

 TemperatureHumidityPressure
High97 °F (Apr 15, 10:50 AM)89% (Apr 11, 2:50 AM)30.06 "Hg (Apr 11, 2:50 AM)
Low70 °F (Apr 17, 4:50 AM)40% (Apr 16, 10:50 AM)29.91 "Hg (Apr 7, 4:50 PM)
Average80 °F71%29.99 "Hg
* Reported Apr 6 11:50 AM — Apr 21 11:50 AM, Ponce, Weather by CustomWeather, © 2015

Note: Actual official high and low records may vary slightly from our data, if they occured in-between our weather recording intervals... More about our weather records

Advertising

Ponce weather history for previous 24 hours

 ConditionsComfort  
Time TempWeatherWind HumidityBarometerVisibility
11:50 AM
Tue, Apr 21
88 °FPassing clouds.12 mph55%30.01 "Hg10 mi
10:50 AM88 °FPassing clouds.12 mph55%30.01 "Hg10 mi
8:50 AM84 °FPassing clouds.9 mph62%30.00 "Hg10 mi
7:50 AM81 °FPassing clouds.6 mph66%30.00 "Hg10 mi
5:50 AM72 °FPassing clouds.6 mph83%29.97 "Hg8 mi
4:50 AM73 °FPassing clouds.No wind78%29.96 "Hg8 mi
3:50 AM73 °FPassing clouds.No wind89%29.96 "Hg8 mi
2:50 AM73 °FPassing clouds.6 mph89%29.96 "Hg8 mi
1:50 AM73 °FPassing clouds.6 mph83%29.97 "Hg8 mi
12:50 AM73 °FPassing clouds.6 mph83%29.97 "Hg8 mi
11:50 PM
Mon, Apr 20
73 °FPassing clouds.6 mph89%29.98 "Hg8 mi
10:50 PM75 °FPassing clouds.6 mph83%29.98 "Hg8 mi
9:50 PM79 °FPassing clouds.6 mph79%29.98 "Hg10 mi
7:50 PM81 °FPassing clouds.7 mph79%29.96 "Hg10 mi
6:50 PM81 °FPartly sunny.6 mph79%29.95 "Hg10 mi
5:50 PM82 °FPartly sunny.12 mph70%29.94 "Hg10 mi
3:50 PM84 °FPartly sunny.12 mph70%29.95 "Hg10 mi
Weather by CustomWeather, © 2015

See weather overviewHow to use our weather pages